Time,TemperatureF,DewpointF,PressureIn,WindDirection,WindDirectionDegrees,WindSpeedMPH,WindSpeedGustMPH,Humidity,HourlyPrecipIn,Conditions,Clouds,dailyrainin,SoftwareType,DateUTC
2013-01-28 00:01:00,17.9,8.9,29.56,ENE,68,0.0,0.0,64,0.00,,,0.00,WSDL version 420,2013-01-28 05:01:00,
2013-01-28 00:03:00,18.0,8.9,29.56,ENE,68,0.0,0.0,64,0.00,,,0.00,WSDL version 420,2013-01-28 05:03:00,
2013-01-28 00:12:00,18.2,9.2,29.56,ENE,68,0.0,0.0,64,-99.99,,,-99.99,WSDL version 420,2013-01-28 05:12:00,
2013-01-28 00:18:00,18.3,9.3,29.53,ENE,68,0.0,0.0,64,-99.99,,,-99.99,WSDL version 420,2013-01-28 05:18:00,
2013-01-28 00:23:00,18.4,9.4,29.53,ENE,68,0.0,0.0,64,-99.99,,,-99.99,WSDL version 420,2013-01-28 05:23:00,
2013-01-28 00:25:00,18.5,9.4,29.53,ENE,68,0.0,0.0,64,0.00,,,0.00,WSDL version 420,2013-01-28 05:25:00,
2013-01-28 00:31:00,18.7,9.9,29.50,ENE,68,0.0,0.0,65,0.00,,,0.00,WSDL version 420,2013-01-28 05:31:00,
2013-01-28 00:37:00,18.7,9.9,29.50,ENE,68,0.0,0.0,65,0.00,,,0.00,WSDL version 420,2013-01-28 05:37:00,
2013-01-28 00:43:00,18.9,10.1,-100.00,ENE,68,0.0,0.0,65,0.00,,,0.00,WSDL version 420,2013-01-28 05:43:00,
2013-01-28 00:49:00,19.0,10.3,29.53,ENE,68,0.0,0.0,65,0.00,,,0.00,WSDL version 420,2013-01-28 05:49:00,
2013-01-28 00:54:00,19.2,10.8,29.53,ENE,68,0.0,0.0,66,0.00,,,0.00,WSDL version 420,2013-01-28 05:54:00,
2013-01-28 01:00:00,19.2,10.8,29.50,ENE,68,0.0,0.0,66,0.00,,,0.00,WSDL version 420,2013-01-28 06:00:00,
2013-01-28 01:07:00,19.4,10.9,29.50,ENE,68,0.0,1.1,66,0.00,,,0.00,WSDL version 420,2013-01-28 06:07:00,
2013-01-28 01:12:00,19.5,10.7,29.50,ENE,68,0.0,1.1,65,0.00,,,0.00,WSDL version 420,2013-01-28 06:12:00,
2013-01-28 01:18:00,19.6,11.1,29.47,ENE,68,0.0,0.9,66,0.00,,,0.00,WSDL version 420,2013-01-28 06:18:00,
2013-01-28 01:26:00,19.9,11.4,29.47,ENE,68,0.0,0.0,66,-99.99,,,-99.99,WSDL version 420,2013-01-28 06:26:00,
2013-01-28 01:32:00,20.1,11.6,29.47,ENE,68,0.0,0.0,66,0.00,,,0.00,WSDL version 420,2013-01-28 06:32:00,
2013-01-28 01:38:00,20.2,11.9,29.47,ENE,68,0.0,0.0,67,0.00,,,0.00,WSDL version 420,2013-01-28 06:38:00,
2013-01-28 01:43:00,20.5,12.3,29.47,ENE,68,0.0,0.0,67,0.00,,,0.00,WSDL version 420,2013-01-28 06:43:00,
2013-01-28 01:49:00,20.6,12.4,29.47,ENE,68,0.0,0.0,67,0.00,,,0.00,WSDL version 420,2013-01-28 06:49:00,
2013-01-28 01:55:00,20.9,12.7,29.47,ENE,68,0.0,0.0,67,0.00,,,0.00,WSDL version 420,2013-01-28 06:55:00,
2013-01-28 02:01:00,21.1,13.0,29.47,ENE,68,0.0,0.0,68,-99.99,,,-99.99,WSDL version 420,2013-01-28 07:01:00,
2013-01-28 02:09:00,21.3,13.2,29.47,ENE,68,0.0,0.0,67,-99.99,,,-99.99,WSDL version 420,2013-01-28 07:09:00,
2013-01-28 02:15:00,21.5,13.3,29.47,ENE,68,0.0,0.0,67,0.00,,,0.00,WSDL version 420,2013-01-28 07:15:00,
2013-01-28 02:21:00,21.7,13.5,29.47,ENE,68,0.0,0.0,67,0.00,,,0.00,WSDL version 420,2013-01-28 07:21:00,
2013-01-28 02:27:00,21.9,13.7,29.47,ENE,68,0.0,0.0,67,0.00,,,0.00,WSDL version 420,2013-01-28 07:27:00,
2013-01-28 02:33:00,22.0,13.8,29.47,ENE,68,0.0,1.3,67,0.00,,,0.00,WSDL version 420,2013-01-28 07:33:00,
2013-01-28 02:39:00,22.1,13.9,29.47,ENE,68,0.9,1.3,67,0.00,,,0.00,WSDL version 420,2013-01-28 07:39:00,
2013-01-28 02:45:00,22.4,14.2,29.44,ENE,68,0.0,1.3,67,-99.99,,,-99.99,WSDL version 420,2013-01-28 07:45:00,
2013-01-28 02:50:00,22.6,14.4,29.44,ENE,68,0.0,0.0,67,-99.99,,,-99.99,WSDL version 420,2013-01-28 07:50:00,
2013-01-28 02:56:00,22.8,14.5,29.44,ENE,68,0.0,0.0,67,0.00,,,0.00,WSDL version 420,2013-01-28 07:56:00,
2013-01-28 03:02:00,23.0,14.7,29.44,ENE,68,0.0,0.0,67,0.00,,,0.00,WSDL version 420,2013-01-28 08:02:00,
2013-01-28 03:08:00,23.2,14.6,29.44,ENE,68,0.0,0.0,66,0.00,,,0.00,WSDL version 420,2013-01-28 08:08:00,
2013-01-28 03:14:00,23.5,14.9,29.44,ENE,68,0.0,0.0,66,0.00,,,0.00,WSDL version 420,2013-01-28 08:14:00,
2013-01-28 03:20:00,23.7,14.9,29.44,ENE,68,0.8,2.2,65,-99.99,,,-99.99,WSDL version 420,2013-01-28 08:20:00,
2013-01-28 03:26:00,24.4,15.3,29.44,ESE,113,0.6,3.4,64,0.00,,,0.00,WSDL version 420,2013-01-28 08:26:00,
2013-01-28 03:32:00,25.0,15.4,29.44,SSE,161,1.2,4.7,62,0.00,,,0.00,WSDL version 420,2013-01-28 08:32:00,
2013-01-28 03:37:00,25.7,15.1,29.44,SSW,203,1.2,4.7,60,0.00,,,0.00,WSDL version 420,2013-01-28 08:37:00,
2013-01-28 03:43:00,26.1,14.6,29.44,SSW,198,1.7,3.8,56,0.00,,,0.00,WSDL version 420,2013-01-28 08:43:00,
2013-01-28 03:49:00,26.5,14.4,29.44,SSW,203,1.8,3.8,56,0.00,,,0.00,WSDL version 420,2013-01-28 08:49:00,
2013-01-28 03:54:00,26.8,14.4,29.44,SSW,203,1.3,3.6,55,0.00,,,0.00,WSDL version 420,2013-01-28 08:54:00,
2013-01-28 04:00:00,27.0,14.1,29.41,SSW,203,1.9,3.6,54,-99.99,,,-99.99,WSDL version 420,2013-01-28 09:00:00,
2013-01-28 04:06:00,27.1,14.3,29.41,SW,219,1.4,3.4,54,0.00,,,0.00,WSDL version 420,2013-01-28 09:06:00,
2013-01-28 04:12:00,27.3,14.1,29.41,SSW,212,2.3,3.4,53,0.00,,,0.00,WSDL version 420,2013-01-28 09:12:00,
2013-01-28 04:18:00,27.5,14.2,29.41,SSW,203,1.8,2.9,53,0.00,,,0.00,WSDL version 420,2013-01-28 09:18:00,
2013-01-28 04:27:00,27.9,13.8,29.41,SW,235,2.7,4.7,51,0.00,,,0.00,WSDL version 420,2013-01-28 09:27:00,
2013-01-28 04:33:00,28.0,13.5,29.41,SSW,210,2.5,4.5,50,0.00,,,0.00,WSDL version 420,2013-01-28 09:33:00,
2013-01-28 04:42:00,28.2,13.3,29.41,SSW,206,2.8,3.8,49,0.00,,,0.00,WSDL version 420,2013-01-28 09:42:00,
2013-01-28 04:48:00,28.2,13.3,29.38,SSW,203,1.9,4.3,49,0.00,,,0.00,WSDL version 420,2013-01-28 09:48:00,
2013-01-28 04:56:00,28.4,13.9,29.38,SSW,203,1.8,3.6,50,-99.99,,,-99.99,WSDL version 420,2013-01-28 09:56:00,
2013-01-28 05:03:00,28.4,14.3,29.38,SSW,203,0.3,3.1,51,-99.99,,,-99.99,WSDL version 420,2013-01-28 10:03:00,
2013-01-28 05:09:00,28.6,14.1,29.38,SSW,203,1.5,2.9,50,0.00,,,0.00,WSDL version 420,2013-01-28 10:09:00,
2013-01-28 05:15:00,28.6,14.1,29.38,SSW,203,1.4,2.7,50,0.00,,,0.00,WSDL version 420,2013-01-28 10:15:00,
2013-01-28 05:21:00,28.6,14.1,29.38,SW,222,2.1,4.0,50,0.00,,,0.00,WSDL version 420,2013-01-28 10:21:00,
2013-01-28 05:28:00,28.8,13.8,29.38,SSW,210,2.2,4.0,49,-99.99,,,-99.99,WSDL version 420,2013-01-28 10:28:00,
2013-01-28 05:34:00,28.8,13.8,29.38,SW,219,1.7,3.4,49,0.00,,,0.00,WSDL version 420,2013-01-28 10:34:00,
2013-01-28 05:40:00,28.9,14.0,29.38,SSW,212,1.2,3.1,49,-99.99,,,-99.99,WSDL version 420,2013-01-28 10:40:00,
2013-01-28 05:45:00,28.9,14.0,29.38,SW,222,1.4,3.1,49,-99.99,,,-99.99,WSDL version 420,2013-01-28 10:45:00,
2013-01-28 05:51:00,28.9,14.0,29.38,SSW,203,1.3,2.9,49,0.00,,,0.00,WSDL version 420,2013-01-28 10:51:00,
2013-01-28 05:57:00,29.1,14.3,29.38,SSW,209,2.6,3.1,49,0.00,,,0.00,WSDL version 420,2013-01-28 10:57:00,
2013-01-28 06:03:00,29.1,14.2,29.41,SSW,210,2.5,3.8,49,0.00,,,0.00,WSDL version 420,2013-01-28 11:03:00,
2013-01-28 06:09:00,29.1,14.6,29.41,WSW,244,2.9,4.9,50,0.00,,,0.00,WSDL version 420,2013-01-28 11:09:00,
2013-01-28 06:15:00,29.1,15.1,29.38,WSW,238,2.6,4.9,52,0.00,,,0.00,WSDL version 420,2013-01-28 11:15:00,
2013-01-28 06:21:00,28.6,16.3,29.38,SW,231,2.5,3.6,57,0.00,,,0.00,WSDL version 420,2013-01-28 11:21:00,
2013-01-28 06:26:00,28.0,16.9,29.38,WSW,244,2.5,3.6,59,0.00,,,0.00,WSDL version 420,2013-01-28 11:26:00,
2013-01-28 06:32:00,27.9,17.2,29.38,SSW,212,2.6,4.3,62,0.00,,,0.00,WSDL version 420,2013-01-28 11:32:00,
2013-01-28 06:38:00,27.8,18.4,29.38,SSW,212,2.1,4.3,64,0.00,,,0.00,WSDL version 420,2013-01-28 11:38:00,
2013-01-28 06:44:00,27.7,18.7,29.35,SW,222,1.8,3.8,66,0.00,,,0.00,WSDL version 420,2013-01-28 11:44:00,
2013-01-28 06:50:00,27.7,19.8,-100.00,SW,218,2.4,3.8,70,0.00,,,0.00,WSDL version 420,2013-01-28 11:50:00,
2013-01-28 06:56:00,27.5,20.3,29.35,WSW,241,2.3,3.8,71,0.00,,,0.00,WSDL version 420,2013-01-28 11:56:00,
2013-01-28 07:02:00,27.5,20.6,29.35,WSW,248,2.8,3.6,73,-99.99,,,-99.99,WSDL version 420,2013-01-28 12:02:00,
2013-01-28 07:08:00,27.5,20.8,29.35,SSW,208,1.7,3.4,73,-99.99,,,-99.99,WSDL version 420,2013-01-28 12:08:00,
2013-01-28 07:13:00,27.3,20.7,29.35,WSW,248,1.5,3.6,73,-99.99,,,-99.99,WSDL version 420,2013-01-28 12:13:00,
2013-01-28 07:20:00,27.3,21.2,29.35,SW,214,1.0,3.8,75,0.00,,,0.00,WSDL version 420,2013-01-28 12:20:00,
2013-01-28 07:27:00,27.3,21.2,29.35,SSW,203,0.4,3.8,75,0.00,,,0.00,WSDL version 420,2013-01-28 12:27:00,
2013-01-28 07:33:00,27.3,21.5,29.32,SSW,203,1.3,2.5,76,0.00,,,0.00,WSDL version 420,2013-01-28 12:33:00,
2013-01-28 07:46:00,27.3,21.8,-100.00,SSW,203,1.2,3.4,77,0.00,,,0.00,WSDL version 420,2013-01-28 12:46:00,
2013-01-28 07:52:00,27.4,21.8,29.29,SSW,203,0.6,3.4,77,0.00,,,0.00,WSDL version 420,2013-01-28 12:52:00,
2013-01-28 07:58:00,27.5,22.0,29.29,SSW,203,1.0,2.0,77,0.00,,,0.00,WSDL version 420,2013-01-28 12:58:00,
2013-01-28 08:04:00,27.7,22.1,29.32,SSW,203,0.6,2.2,77,-99.99,,,-99.99,WSDL version 420,2013-01-28 13:04:00,
2013-01-28 08:10:00,27.9,22.6,29.32,SSW,203,1.6,2.5,78,0.00,,,0.00,WSDL version 420,2013-01-28 13:10:00,
2013-01-28 08:16:00,28.0,23.0,29.32,SSW,203,1.1,2.5,79,-99.99,,,-99.99,WSDL version 420,2013-01-28 13:16:00,
2013-01-28 08:22:00,28.5,23.7,29.32,SSW,203,0.5,2.2,80,-99.99,,,-99.99,WSDL version 420,2013-01-28 13:22:00,
2013-01-28 08:28:00,28.7,23.9,29.32,SSW,203,1.3,2.9,80,0.00,,,0.00,WSDL version 420,2013-01-28 13:28:00,
2013-01-28 08:33:00,29.1,24.5,29.29,SSW,203,2.1,3.8,81,0.00,,,0.00,WSDL version 420,2013-01-28 13:33:00,
2013-01-28 08:46:00,29.8,25.9,29.26,SSW,203,2.6,7.6,83,0.00,,,0.00,WSDL version 420,2013-01-28 13:46:00,
2013-01-28 08:54:00,30.2,26.6,-100.00,SSW,203,2.2,4.3,84,0.00,,,0.00,WSDL version 420,2013-01-28 13:54:00,
2013-01-28 08:59:00,30.4,26.5,29.26,SSW,203,2.7,3.4,83,0.00,,,0.00,WSDL version 420,2013-01-28 13:59:00,
2013-01-28 09:05:00,30.4,26.5,29.26,SSW,203,2.7,4.7,83,-99.99,,,-99.99,WSDL version 420,2013-01-28 14:05:00,
2013-01-28 09:11:00,30.6,26.5,29.26,SSW,203,3.5,5.6,82,0.00,,,0.00,WSDL version 420,2013-01-28 14:11:00,
2013-01-28 09:17:00,30.6,26.1,29.26,SSW,203,2.8,7.6,81,0.00,,,0.00,WSDL version 420,2013-01-28 14:17:00,
2013-01-28 09:23:00,30.6,26.1,29.26,SSW,203,2.3,7.6,81,0.00,,,0.00,WSDL version 420,2013-01-28 14:23:00,
2013-01-28 09:29:00,30.9,26.4,29.26,SSW,203,3.0,4.7,82,0.00,,,0.00,WSDL version 420,2013-01-28 14:29:00,
2013-01-28 09:35:00,30.9,26.6,29.26,SSW,203,2.7,4.7,82,0.00,,,0.00,WSDL version 420,2013-01-28 14:35:00,
2013-01-28 09:42:00,31.1,26.9,29.26,SSW,203,4.1,6.0,82,0.00,,,0.00,WSDL version 420,2013-01-28 14:42:00,
2013-01-28 09:57:00,31.3,27.6,29.23,SSW,203,3.6,7.6,84,0.00,,,0.00,WSDL version 420,2013-01-28 14:57:00,
2013-01-28 10:05:00,31.5,27.8,29.23,SSW,203,3.1,5.8,84,0.00,,,0.00,WSDL version 420,2013-01-28 15:05:00,
2013-01-28 10:11:00,31.6,27.9,29.23,SSW,203,2.3,4.0,84,0.00,,,0.00,WSDL version 420,2013-01-28 15:11:00,
2013-01-28 10:20:00,31.8,28.2,29.23,SSW,203,1.6,4.3,84,0.00,,,0.00,WSDL version 420,2013-01-28 15:20:00,
2013-01-28 10:30:00,31.9,28.2,29.21,SSW,203,1.9,3.8,84,0.00,,,0.00,WSDL version 420,2013-01-28 15:30:00,
2013-01-28 10:36:00,32.1,28.1,29.21,SSW,203,2.5,3.8,84,0.00,,,0.00,WSDL version 420,2013-01-28 15:36:00,
2013-01-28 10:42:00,32.3,28.1,-100.00,SSW,203,2.3,6.5,84,0.00,,,0.00,WSDL version 420,2013-01-28 15:42:00,
2013-01-28 10:48:00,32.5,28.1,29.23,SSW,203,2.6,3.6,84,-99.99,,,-99.99,WSDL version 420,2013-01-28 15:48:00,
2013-01-28 10:54:00,32.5,28.1,29.23,SSW,203,2.6,4.3,83,-99.99,,,-99.99,WSDL version 420,2013-01-28 15:54:00,
2013-01-28 11:02:00,32.9,28.7,-100.00,SSW,203,2.2,3.8,84,0.00,,,0.00,WSDL version 420,2013-01-28 16:02:00,
2013-01-28 11:08:00,33.0,28.9,29.18,SSW,203,3.3,5.8,84,0.00,,,0.00,WSDL version 420,2013-01-28 16:08:00,
2013-01-28 11:16:00,33.3,29.1,-100.00,SSW,203,3.0,3.4,84,0.00,,,0.00,WSDL version 420,2013-01-28 16:16:00,
2013-01-28 11:22:00,33.6,29.4,29.21,SSW,203,1.5,4.9,84,-99.99,,,-99.99,WSDL version 420,2013-01-28 16:22:00,
2013-01-28 11:28:00,33.6,29.4,29.21,SSW,203,2.8,4.9,84,0.00,,,0.00,WSDL version 420,2013-01-28 16:28:00,
2013-01-28 11:34:00,33.8,29.3,-100.00,SSW,203,3.4,5.8,83,0.00,,,0.00,WSDL version 420,2013-01-28 16:34:00,
2013-01-28 11:40:00,34.0,29.2,29.18,SSW,203,3.1,6.5,82,0.00,,,0.00,WSDL version 420,2013-01-28 16:40:00,
2013-01-28 11:57:00,34.3,29.5,29.15,SSW,203,2.9,5.8,82,0.00,,,0.00,WSDL version 420,2013-01-28 16:57:00,
2013-01-28 12:05:00,34.3,29.2,29.15,SSW,203,2.9,4.9,81,0.00,,,0.00,WSDL version 420,2013-01-28 17:05:00,
2013-01-28 12:11:00,34.3,29.2,29.15,SW,233,3.9,6.5,81,0.00,,,0.00,WSDL version 420,2013-01-28 17:11:00,
2013-01-28 12:16:00,34.3,29.3,29.12,SW,228,3.8,6.5,82,0.00,,,0.00,WSDL version 420,2013-01-28 17:16:00,
2013-01-28 12:23:00,34.3,29.5,29.12,WSW,248,3.4,7.2,82,0.00,,,0.00,WSDL version 420,2013-01-28 17:23:00,
2013-01-28 12:28:00,34.3,29.5,29.15,WSW,248,3.5,6.5,82,0.00,,,0.00,WSDL version 420,2013-01-28 17:28:00,
2013-01-28 12:34:00,34.3,29.8,29.15,WSW,241,3.7,6.5,83,0.00,,,0.00,WSDL version 420,2013-01-28 17:34:00,
2013-01-28 12:40:00,34.3,30.1,29.15,WSW,244,3.1,4.7,84,0.00,,,0.00,WSDL version 420,2013-01-28 17:40:00,
2013-01-28 12:46:00,34.3,30.1,29.12,SSW,203,3.4,4.3,84,-99.99,,,-99.99,WSDL version 420,2013-01-28 17:46:00,
2013-01-28 12:52:00,34.5,30.6,29.12,SW,229,1.5,4.3,86,0.00,,,0.00,WSDL version 420,2013-01-28 17:52:00,
2013-01-28 12:58:00,34.5,30.6,29.12,SW,233,3.2,4.3,86,0.00,,,0.00,WSDL version 420,2013-01-28 17:58:00,
2013-01-28 13:04:00,34.7,31.1,29.12,WSW,239,3.2,5.6,87,0.00,,,0.00,WSDL version 420,2013-01-28 18:04:00,
2013-01-28 13:09:00,34.9,31.4,29.12,SW,235,3.0,5.6,87,0.00,,,0.00,WSDL version 420,2013-01-28 18:09:00,
2013-01-28 13:15:00,35.4,31.8,29.09,SW,221,3.1,6.9,87,0.00,,,0.00,WSDL version 420,2013-01-28 18:15:00,
2013-01-28 13:21:00,35.6,31.7,29.09,WSW,240,2.8,6.9,86,0.00,,,0.00,WSDL version 420,2013-01-28 18:21:00,
2013-01-28 13:27:00,35.7,31.8,29.09,WSW,242,3.6,7.4,84,-99.99,,,-99.99,WSDL version 420,2013-01-28 18:27:00,
2013-01-28 13:33:00,35.8,31.6,29.06,SW,229,2.9,7.4,84,0.00,,,0.00,WSDL version 420,2013-01-28 18:33:00,
2013-01-28 13:39:00,36.0,31.7,29.06,SSW,195,1.8,5.4,84,0.00,,,0.00,WSDL version 420,2013-01-28 18:39:00,
2013-01-28 13:45:00,36.0,31.5,29.09,SW,234,3.1,4.9,83,0.00,,,0.00,WSDL version 420,2013-01-28 18:45:00,
2013-01-28 13:55:00,36.3,31.8,-100.00,WSW,252,3.1,5.6,83,-99.99,,,-99.99,WSDL version 420,2013-01-28 18:55:00,
2013-01-28 14:01:00,36.3,31.8,29.09,SSW,203,2.0,5.4,83,0.00,,,0.00,WSDL version 420,2013-01-28 19:01:00,
2013-01-28 14:07:00,36.3,31.8,29.09,SSW,194,2.2,5.4,83,0.00,,,0.00,WSDL version 420,2013-01-28 19:07:00,
2013-01-28 14:12:00,36.6,32.0,29.09,SW,234,1.0,4.3,83,0.00,,,0.00,WSDL version 420,2013-01-28 19:12:00,
2013-01-28 14:19:00,36.9,32.0,29.09,SSW,207,1.8,3.1,82,0.00,,,0.00,WSDL version 420,2013-01-28 19:19:00,
2013-01-28 14:25:00,37.0,32.1,29.09,SSW,208,3.1,5.4,82,0.00,,,0.00,WSDL version 420,2013-01-28 19:25:00,
2013-01-28 14:32:00,37.0,32.1,29.09,SW,221,2.2,5.4,82,0.00,,,0.00,WSDL version 420,2013-01-28 19:32:00,
2013-01-28 14:40:00,37.0,32.1,29.09,South,191,2.1,4.7,82,0.00,,,0.00,WSDL version 420,2013-01-28 19:40:00,
2013-01-28 14:46:00,37.0,31.8,-100.00,WSW,248,2.1,4.0,81,0.00,,,0.00,WSDL version 420,2013-01-28 19:46:00,
2013-01-28 14:51:00,37.0,31.8,29.09,SW,218,2.1,4.0,81,0.00,,,0.00,WSDL version 420,2013-01-28 19:51:00,
2013-01-28 15:00:00,37.2,32.3,29.09,SW,225,2.4,2.9,82,0.00,,,0.00,WSDL version 420,2013-01-28 20:00:00,
2013-01-28 15:06:00,37.3,32.4,29.09,SSW,203,0.3,3.4,82,0.00,,,0.00,WSDL version 420,2013-01-28 20:06:00,
2013-01-28 15:12:00,37.2,32.3,29.09,SSW,203,1.4,4.0,82,-99.99,,,-99.99,WSDL version 420,2013-01-28 20:12:00,
2013-01-28 15:18:00,37.0,32.1,29.09,WSW,251,1.7,2.9,82,0.00,,,0.00,WSDL version 420,2013-01-28 20:18:00,
2013-01-28 15:24:00,37.0,32.1,29.09,SSW,210,1.9,3.8,82,0.00,,,0.00,WSDL version 420,2013-01-28 20:24:00,
2013-01-28 15:30:00,37.0,32.1,29.06,WSW,248,1.9,3.8,82,0.00,,,0.00,WSDL version 420,2013-01-28 20:30:00,
2013-01-28 15:36:00,37.2,32.6,29.06,SSW,207,1.6,3.1,83,0.00,,,0.00,WSDL version 420,2013-01-28 20:36:00,
2013-01-28 15:42:00,37.2,32.6,29.06,SW,214,1.5,3.6,83,-99.99,,,-99.99,WSDL version 420,2013-01-28 20:42:00,
2013-01-28 15:47:00,37.2,32.6,29.06,SSW,210,1.2,3.4,83,-99.99,,,-99.99,WSDL version 420,2013-01-28 20:47:00,
2013-01-28 15:54:00,37.2,32.6,29.06,SW,225,1.9,3.1,83,0.00,,,0.00,WSDL version 420,2013-01-28 20:54:00,
2013-01-28 16:03:00,37.4,32.8,29.06,SSW,199,1.9,3.8,83,-99.99,,,-99.99,WSDL version 420,2013-01-28 21:03:00,
2013-01-28 16:09:00,37.4,32.8,29.06,SSW,203,1.7,3.6,83,0.00,,,0.00,WSDL version 420,2013-01-28 21:09:00,
2013-01-28 16:15:00,37.4,33.1,29.06,SSW,205,1.7,5.4,84,0.00,,,0.00,WSDL version 420,2013-01-28 21:15:00,
2013-01-28 16:21:00,37.4,33.4,-100.00,SW,221,1.3,5.6,86,0.00,,,0.00,WSDL version 420,2013-01-28 21:21:00,
2013-01-28 16:27:00,37.4,33.5,29.06,SW,215,1.6,5.6,86,0.04,,,0.04,WSDL version 420,2013-01-28 21:27:00,
2013-01-28 16:33:00,37.4,33.5,29.06,SSW,203,1.6,4.0,86,0.04,,,0.04,WSDL version 420,2013-01-28 21:33:00,
2013-01-28 16:41:00,37.4,33.5,29.06,SSW,203,2.5,4.0,86,0.04,,,0.04,WSDL version 420,2013-01-28 21:41:00,
2013-01-28 16:48:00,37.4,33.5,29.06,SSW,208,1.9,4.0,86,0.04,,,0.04,WSDL version 420,2013-01-28 21:48:00,
2013-01-28 16:54:00,37.4,33.8,29.06,SSW,203,0.4,4.3,87,-99.99,,,-99.99,WSDL version 420,2013-01-28 21:54:00,
2013-01-28 17:01:00,37.2,33.6,29.03,SSW,212,0.9,3.4,87,0.04,,,0.04,WSDL version 420,2013-01-28 22:01:00,
2013-01-28 17:11:00,37.2,33.9,29.03,South,180,1.3,3.8,88,0.04,,,0.04,WSDL version 420,2013-01-28 22:11:00,
2013-01-28 17:17:00,37.3,33.9,29.06,SSW,203,2.2,3.6,87,0.04,,,0.04,WSDL version 420,2013-01-28 22:17:00,
2013-01-28 17:23:00,37.3,34.1,29.06,SSW,203,2.4,5.6,88,-99.99,,,-99.99,WSDL version 420,2013-01-28 22:23:00,
2013-01-28 17:29:00,37.4,34.1,29.06,WSW,239,1.3,5.6,88,0.00,,,0.04,WSDL version 420,2013-01-28 22:29:00,
2013-01-28 17:38:00,37.2,33.9,29.06,SW,228,1.3,3.1,88,0.00,,,0.04,WSDL version 420,2013-01-28 22:38:00,
2013-01-28 17:44:00,37.4,34.1,29.03,SSW,203,2.1,4.0,88,-99.99,,,-99.99,WSDL version 420,2013-01-28 22:44:00,
2013-01-28 17:50:00,37.4,34.1,29.03,SSW,203,1.5,3.4,88,0.00,,,0.04,WSDL version 420,2013-01-28 22:50:00,
2013-01-28 17:56:00,37.4,34.1,29.03,SW,219,1.6,3.1,88,0.00,,,0.04,WSDL version 420,2013-01-28 22:56:00,
2013-01-28 18:02:00,37.4,34.1,29.06,SW,221,2.4,3.6,88,0.05,,,0.09,WSDL version 420,2013-01-28 23:02:00,
2013-01-28 18:08:00,37.5,34.5,29.06,WSW,251,1.9,4.0,89,-99.99,,,-99.99,WSDL version 420,2013-01-28 23:08:00,
2013-01-28 18:14:00,37.6,34.4,29.06,WSW,248,1.6,4.0,89,-99.99,,,-99.99,WSDL version 420,2013-01-28 23:14:00,
2013-01-28 18:20:00,37.6,34.6,29.06,SSW,203,1.8,4.5,89,-99.99,,,-99.99,WSDL version 420,2013-01-28 23:20:00,
2013-01-28 18:26:00,37.6,34.6,29.06,SW,225,0.3,4.5,89,0.05,,,0.09,WSDL version 420,2013-01-28 23:26:00,
2013-01-28 18:32:00,37.7,34.7,29.06,SSW,211,2.0,4.0,89,-99.99,,,-99.99,WSDL version 420,2013-01-28 23:32:00,
2013-01-28 18:37:00,37.8,34.8,29.06,SSW,206,1.9,4.0,89,0.05,,,0.09,WSDL version 420,2013-01-28 23:37:00,
2013-01-28 18:43:00,37.9,35.0,29.06,SW,218,0.6,2.7,89,0.05,,,0.09,WSDL version 420,2013-01-28 23:43:00,
2013-01-28 18:49:00,37.8,34.8,29.09,SW,225,0.9,2.7,89,0.05,,,0.09,WSDL version 420,2013-01-28 23:49:00,
2013-01-28 18:55:00,37.9,35.0,29.09,SSW,203,0.4,3.6,89,0.05,,,0.09,WSDL version 420,2013-01-28 23:55:00,
2013-01-28 19:01:00,37.9,35.0,29.09,SW,219,1.3,2.7,90,0.00,,,0.09,WSDL version 420,2013-01-29 00:01:00,
2013-01-28 19:07:00,37.9,35.3,29.09,SSW,203,0.8,2.7,90,-99.99,,,-99.99,WSDL version 420,2013-01-29 00:07:00,
2013-01-28 19:12:00,38.1,35.5,29.09,SSW,210,1.0,3.4,90,-99.99,,,-99.99,WSDL version 420,2013-01-29 00:12:00,
2013-01-28 19:18:00,38.1,35.5,29.06,SSW,203,1.0,3.4,90,0.00,,,0.09,WSDL version 420,2013-01-29 00:18:00,
2013-01-28 19:25:00,38.2,35.5,29.06,SW,219,0.2,2.7,90,-99.99,,,-99.99,WSDL version 420,2013-01-29 00:25:00,
2013-01-28 19:31:00,38.2,35.5,29.09,SSW,203,0.0,2.7,90,0.00,,,0.09,WSDL version 420,2013-01-29 00:31:00,
2013-01-28 19:37:00,38.1,35.5,29.09,SSW,203,0.3,1.6,90,0.00,,,0.09,WSDL version 420,2013-01-29 00:37:00,
2013-01-28 19:42:00,37.9,35.3,29.09,SSW,203,0.7,2.2,90,0.00,,,0.09,WSDL version 420,2013-01-29 00:42:00,
2013-01-28 19:48:00,37.9,35.3,29.06,South,186,0.4,2.5,90,0.00,,,0.09,WSDL version 420,2013-01-29 00:48:00,
2013-01-28 19:54:00,37.9,35.3,29.06,SSW,203,0.0,2.5,90,0.00,,,0.09,WSDL version 420,2013-01-29 00:54:00,
2013-01-28 20:00:00,37.8,35.1,29.09,SSW,203,1.2,3.1,90,0.00,,,0.09,WSDL version 420,2013-01-29 01:00:00,
2013-01-28 20:05:00,37.9,35.2,29.09,SSW,203,0.8,3.1,90,0.00,,,0.09,WSDL version 420,2013-01-29 01:05:00,
2013-01-28 20:11:00,37.8,35.1,29.09,SSW,203,0.0,2.0,90,0.00,,,0.09,WSDL version 420,2013-01-29 01:11:00,
2013-01-28 20:17:00,37.9,35.2,29.09,SSW,212,1.6,2.7,90,0.00,,,0.09,WSDL version 420,2013-01-29 01:17:00,
2013-01-28 20:23:00,37.9,35.6,29.09,SSW,203,0.9,2.7,91,0.00,,,0.09,WSDL version 420,2013-01-29 01:23:00,
2013-01-28 20:28:00,37.9,35.9,29.09,SSW,203,0.8,2.7,92,-99.99,,,-99.99,WSDL version 420,2013-01-29 01:28:00,
2013-01-28 20:34:00,38.1,36.0,29.09,SSW,203,1.1,2.7,92,0.00,,,0.09,WSDL version 420,2013-01-29 01:34:00,
2013-01-28 20:40:00,38.1,36.1,29.09,SW,236,0.0,2.0,92,0.00,,,0.09,WSDL version 420,2013-01-29 01:40:00,
2013-01-28 20:46:00,38.2,36.3,-100.00,SW,225,0.3,2.0,93,0.00,,,0.09,WSDL version 420,2013-01-29 01:46:00,
2013-01-28 20:52:00,38.3,36.5,29.09,SSW,203,0.3,2.0,93,0.00,,,0.09,WSDL version 420,2013-01-29 01:52:00,
2013-01-28 20:58:00,38.3,36.5,29.09,SSW,203,0.0,1.3,93,-99.99,,,-99.99,WSDL version 420,2013-01-29 01:58:00,
2013-01-28 21:04:00,38.4,36.7,29.09,SW,225,0.7,0.9,93,0.00,,,0.09,WSDL version 420,2013-01-29 02:04:00,
2013-01-28 21:10:00,38.4,36.7,29.09,SW,225,0.0,1.3,93,0.00,,,0.09,WSDL version 420,2013-01-29 02:10:00,
2013-01-28 21:17:00,38.1,36.1,29.09,SW,225,0.0,0.0,92,0.00,,,0.09,WSDL version 420,2013-01-29 02:17:00,
2013-01-28 21:23:00,38.1,36.1,29.09,WSW,248,0.0,0.0,92,0.00,,,0.09,WSDL version 420,2013-01-29 02:23:00,
2013-01-28 21:29:00,37.9,35.9,29.06,WSW,248,0.0,0.0,92,0.00,,,0.09,WSDL version 420,2013-01-29 02:29:00,
2013-01-28 21:35:00,37.9,35.9,29.06,WSW,248,0.0,0.0,92,0.00,,,0.09,WSDL version 420,2013-01-29 02:35:00,
2013-01-28 21:41:00,38.0,36.2,29.06,North,0,0.0,0.0,93,-99.99,,,-99.99,WSDL version 420,2013-01-29 02:41:00,
2013-01-28 21:49:00,38.2,36.5,29.09,SW,225,0.0,0.0,93,0.00,,,0.09,WSDL version 420,2013-01-29 02:49:00,
2013-01-28 21:55:00,38.3,36.5,29.09,SW,225,0.0,0.0,93,0.00,,,0.09,WSDL version 420,2013-01-29 02:55:00,
2013-01-28 22:00:00,38.3,36.7,29.06,SW,225,0.0,0.0,94,0.00,,,0.09,WSDL version 420,2013-01-29 03:00:00,
2013-01-28 22:06:00,38.5,37.0,29.06,SW,225,0.0,0.0,94,0.00,,,0.09,WSDL version 420,2013-01-29 03:06:00,
2013-01-28 22:12:00,38.5,37.1,29.06,SW,225,0.0,0.0,94,-99.99,,,-99.99,WSDL version 420,2013-01-29 03:12:00,
2013-01-28 22:18:00,38.7,37.4,29.09,SW,225,0.0,0.0,94,0.00,,,0.09,WSDL version 420,2013-01-29 03:18:00,
2013-01-28 22:23:00,38.7,37.4,29.09,SW,225,0.0,0.0,96,0.00,,,0.09,WSDL version 420,2013-01-29 03:23:00,
2013-01-28 22:29:00,38.7,37.5,29.09,SSW,203,0.0,0.0,96,0.00,,,0.09,WSDL version 420,2013-01-29 03:29:00,
2013-01-28 22:35:00,38.7,37.5,29.09,SSW,212,0.0,0.0,96,0.00,,,0.09,WSDL version 420,2013-01-29 03:35:00,
2013-01-28 22:43:00,38.5,37.1,-100.00,WSW,248,0.0,0.0,94,0.00,,,0.09,WSDL version 420,2013-01-29 03:43:00,
2013-01-28 22:49:00,38.4,36.9,29.09,WSW,248,0.0,0.0,94,0.00,,,0.09,WSDL version 420,2013-01-29 03:49:00,
2013-01-28 22:54:00,37.9,36.2,29.09,WSW,248,0.0,0.0,93,0.00,,,0.09,WSDL version 420,2013-01-29 03:54:00,
2013-01-28 23:00:00,37.9,36.2,29.12,WSW,248,0.0,0.0,93,0.00,,,0.09,WSDL version 420,2013-01-29 04:00:00,
2013-01-28 23:06:00,37.8,36.0,29.12,WSW,248,0.0,0.0,93,0.00,,,0.09,WSDL version 420,2013-01-29 04:06:00,
2013-01-28 23:12:00,37.6,35.8,29.12,WSW,248,0.0,0.0,93,0.00,,,0.09,WSDL version 420,2013-01-29 04:12:00,
2013-01-28 23:18:00,37.4,36.0,29.12,West,276,0.0,0.0,94,0.00,,,0.09,WSDL version 420,2013-01-29 04:18:00,
2013-01-28 23:24:00,37.4,36.0,29.12,WNW,293,0.0,0.0,94,0.00,,,0.09,WSDL version 420,2013-01-29 04:24:00,
2013-01-28 23:30:00,37.3,35.8,29.15,WNW,293,0.0,0.0,94,0.00,,,0.09,WSDL version 420,2013-01-29 04:30:00,
2013-01-28 23:36:00,37.2,35.8,29.15,WNW,293,0.0,0.0,94,0.00,,,0.09,WSDL version 420,2013-01-29 04:36:00,
2013-01-28 23:42:00,37.0,35.6,29.15,WNW,302,0.0,2.5,94,0.00,,,0.09,WSDL version 420,2013-01-29 04:42:00,
2013-01-28 23:47:00,37.1,35.6,29.12,ESE,113,0.0,2.2,94,0.00,,,0.09,WSDL version 420,2013-01-29 04:47:00,
2013-01-28 23:55:00,37.8,36.6,29.12,North,349,0.0,2.5,96,0.00,,,0.09,WSDL version 420,2013-01-29 04:55:00,